RH
50 47 43 46 46 46 47 46 47 46 48 53 59 57 65 66 50 44 46 50 44 45 40 42 43 50 70 73 59 75 87 78 70 70 56 56 57 48 38 31 32 29 37 52 46
45 44 45 50 49 55 54 53 54 52 49 49 51 55 59 66 66 45 46 50 39 46 43 45 44 46 63 72 67 57 69 68 62 59 62 58 60 54 43 31 29 28 30 37 39
42 44 46 54 61 63 65 66 59 58 56 58 57 59 56 66 67 54 39 44 47 56 50 48 48 51 60 65 73 56 52 51 60 65 61 57 61 55 44 35 29 28 28 32 33
49 52 60 63 67 70 74 74 68 63 62 62 65 66 69 67 67 63 43 36 58 62 62 56 50 56 60 58 60 67 50 46 56 67 56 53 55 46 42 36 33 30 33 31 30
48 52 60 67 78 84 90 86 77 65 64 70 78 80 79 79 58 64 59 43 65 69 67 55 47 58 60 51 57 66 63 52 54 54 52 51 48 41 40 39 38 35 32 28 29
44 48 56 63 74 85 96 85 72 67 77 86 85 84 87 74 68 63 62 64 60 72 66 63 46 57 63 63 58 59 69 71 61 54 48 47 47 45 36 41 38 35 31 29 27
44 49 51 59 77 89 96 69 66 74 77 70 70 80 78 69 74 59 50 69 69 77 68 64 56 56 64 74 64 64 71 76 69 57 53 51 54 42 41 41 36 34 32 29 27
48 48 49 70 78 90 78 49 66 68 67 67 82 72 70 66 65 62 53 69 76 85 77 70 64 59 70 71 71 68 69 77 71 67 65 59 53 49 42 42 36 34 32 30 27
50 44 48 57 78 76 53 52 62 60 60 61 67 73 74 67 61 59 58 61 76 84 86 80 70 61 70 77 82 79 67 68 67 69 67 63 53 51 44 43 40 35 32 29 27
46 42 47 56 65 65 52 59 61 64 71 68 77 93 73 70 68 59 57 66 85 89 91 92 77 69 69 83 80 69 67 56 58 59 67 64 55 51 48 44 39 37 34 31 29
43 47 43 47 49 50 61 69 79 85 90 83 86 77 85 77 67 69 69 74 83 85 97 77 82 67 49 56 60 56 61 62 55 58 60 65 58 49 47 44 40 36 32 30 28
38 47 41 46 54 60 64 67 69 73 72 74 66 65 73 73 75 75 94 97 87 90 77 85 71 62 64 69 71 66 59 50 58 58 57 61 53 44 41 40 38 34 31 27 26
38 42 44 43 53 70 79 74 69 74 82 76 75 70 76 74 85 88 98 98 98 94 78 74 61 63 69 71 73 64 55 50 59 57 58 59 54 45 38 34 34 32 27 25 24
41 41 41 45 55 61 75 72 76 85 95 90 92 89 89 76 84 96 94 95 97 89 81 85 73 69 78 80 71 70 54 56 59 59 61 54 49 47 43 31 29 27 24 23 22
39 39 41 42 49 58 65 75 87 92 94 87 92 90 96 96 86 94 93 92 95 85 73 83 81 77 91 82 78 71 57 60 62 61 65 57 56 46 45 36 30 26 25 26 28
37 40 41 43 45 56 63 70 76 88 97 98 96 96 98 85 85 80 86 90 88 75 73 77 84 88 93 94 88 76 69 61 60 64 78 59 51 51 42 34 32 30 30 31 32
38 41 42 43 48 50 58 67 73 84 92 95 98 94 94 81 80 83 83 90 85 81 82 89 87 88 97 96 88 84 81 78 82 81 74 53 59 47 39 38 36 34 33 35 35
35 42 45 46 49 48 54 66 67 78 88 89 93 91 82 93 98 97 92 93 80 72 83 87 94 97 98 93 89 84 75 78 67 77 63 55 62 42 35 36 38 36 37 36 36
28 42 45 44 44 50 60 61 69 75 80 86 83 82 90 85 83 95 89 87 91 92 98 98 96 93 97 95 89 89 89 68 65 57 68 52 48 49 47 40 38 37 36 37 36
25 36 46 43 47 46 54 62 69 72 75 74 71 73 73 68 72 85 82 79 82 82 83 88 96 95 96 96 93 89 80 78 77 72 68 52 48 44 46 45 39 40 41 38 37
36 37 45 46 48 50 55 58 61 66 66 66 63 62 64 66 68 71 72 74 74 75 79 83 87 97 97 98 98 96 97 78 70 61 63 53 43 36 41 40 39 43 40 39 40
57 44 40 47 51 50 51 54 55 53 59 61 59 57 57 59 62 66 71 69 72 73 74 73 83 94 86 83 86 90 82 85 90 76 65 57 50 34 36 40 42 42 41 41 43
50 50 42 47 56 53 51 55 56 55 55 55 54 55 54 57 62 60 66 66 66 69 70 66 72 87 83 77 76 79 78 76 76 80 83 73 58 43 39 42 41 41 43 42 46
51 69 47 51 49 54 53 55 60 56 57 56 56 54 54 53 55 60 64 65 64 62 64 62 63 68 74 75 71 71 67 64 68 74 64 59 54 48 43 40 42 41 42 48 52
46 67 73 55 55 54 52 51 52 56 55 53 56 55 59 60 57 60 65 64 62 57 57 61 68 62 58 57 64 62 58 58 64 60 63 54 47 42 40 40 42 42 48 56 56
59 53 66 68 53 54 56 51 50 51 54 53 54 55 56 61 63 64 59 59 63 58 56 65 73 66 64 53 54 57 54 55 55 58 56 54 51 44 41 41 42 45 57 59 56
61 63 62 72 61 56 62 61 62 57 56 53 53 55 59 67 64 63 61 57 57 59 59 63 68 69 71 58 54 58 48 49 53 53 54 53 45 45 43 45 44 57 62 63 63